SCP
0 0 0 1 1 1 1 0 0 0 0 0 0 0 0 0 0 0 0 0 0 0 0 0 0 0 0 0 0 0 0 0
0 0 0 1 1 1 1 1 1 1 1 1 1 0 0 0 0 0 0 0 0 0 0 0 0 0 0 0 0 0 0 0
0 0 0 1 1 1 1 1 1 1 1 1 1 1 1 1 0 0 0 0 0 0 0 0 0 0 0 0 0 0 0 0
0 0 0 1 1 1 1 1 1 1 2 2 2 1 1 1 0 0 0 0 0 0 0 0 0 0 0 0 0 0 0 0
0 0 0 1 1 1 1 2 2 2 2 2 2 1 1 0 0 0 0 0 0 0 0 0 0 0 0 0 0 0 0 0
0 0 0 0 1 1 1 1 2 1 1 2 1 1 1 0 0 0 0 0 0 0 0 0 0 0 0 0 0 0 0 0
0 0 0 0 1 1 1 1 1 1 1 1 1 1 0 0 0 0 0 0 0 0 0 0 0 0 0 0 0 0 0 0
0 0 0 1 1 1 1 1 0 0 0 1 1 1 0 0 0 0 0 0 0 0 0 0 0 0 0 0 0 0 0 0
0 0 0 0 1 1 0 0 0 0 0 0 0 0 0 0 0 0 0 0 0 0 0 0 0 0 0 0 0 0 0 0
0 0 0 0 0 0 0 0 0 0 0 0 0 0 0 0 0 0 0 0 0 0 0 0 0 0 0 0 0 0 0 0
0 0 0 0 0 0 0 0 0 0 0 0 0 0 0 0 0 0 0 0 0 0 0 0 0 0 0 0 0 0 0 0
0 0 0 0 0 0 0 0 0 0 0 0 0 0 0 0 0 0 0 0 0 0 0 0 0 0 0 0 0 0 0 0
0 0 0 0 0 0 0 0 0 0 0 0 0 0 0 0 0 0 0 0 0 0 0 0 0 0 0 0 0 0 0 0
0 0 0 0 0 0 0 0 0 0 0 0 0 0 0 0 0 0 0 0 0 0 0 0 0 0 0 0 0 0 0 0
0 0 0 0 0 0 0 0 0 0 0 0 0 0 0 0 0 0 0 0 0 0 0 0 0 0 0 0 0 0 0 0
0 0 0 0 0 0 0 0 0 0 0 0 0 0 0 0 0 0 0 0 0 0 0 0 0 0 0 0 0 0 0 0
0 0 0 0 0 0 0 0 1 0 0 0 0 0 0 0 0 0 0 0 0 0 0 0 -0 -0 0 -0 0 0 0 0
0 0 0 0 0 0 0 0 0 0 0 0 0 0 0 0 0 0 0 0 0 0 0 -0 0 -0 -0 -0 0 0 0 0
0 0 0 0 0 0 0 0 0 0 0 0 0 0 0 0 0 0 0 0 0 0 -0 0 0 0 -0 -0 0 0 0 0
Wind_Speed_500mb
25 25 30 30 30 30 30 29 23 17 16 18 22 22 22 24 30 34 34 37 34 34 29 26 27 26 27 27 24 23 24 22
22 24 31 33 33 33 35 33 28 23 19 20 24 25 21 26 34 36 39 39 39 36 36 33 34 33 33 33 29 26 25 24
22 20 31 34 35 36 38 36 31 27 24 25 28 26 21 28 30 31 33 38 40 38 37 39 35 35 37 38 36 33 30 28
32 27 29 34 36 39 39 37 33 30 27 29 32 28 27 26 27 27 31 34 38 44 45 44 42 42 43 42 39 37 37 32
40 38 36 34 40 44 43 39 36 30 29 34 37 35 32 30 30 30 32 32 36 41 44 44 44 44 43 45 44 39 37 36
52 50 45 44 47 49 46 40 35 30 34 39 40 40 38 38 36 35 32 35 32 36 38 38 42 47 46 47 46 42 41 35
62 61 54 51 52 54 51 42 37 33 36 40 40 40 39 40 39 36 34 30 30 31 32 30 30 31 33 29 34 43 40 33
65 67 61 54 55 56 53 44 39 35 35 38 38 34 34 39 42 41 37 34 28 25 27 29 32 33 33 29 30 32 33 37
80 71 64 56 58 57 51 46 39 34 35 36 32 27 31 36 42 42 38 32 31 26 27 28 29 32 34 42 32 30 34 35
87 79 68 61 60 57 52 46 38 32 36 33 28 28 30 33 38 39 39 35 34 31 27 28 29 27 31 35 39 32 31 35
84 89 67 65 58 56 50 43 34 36 34 29 27 27 32 35 36 38 40 39 38 34 32 29 30 29 29 30 33 36 34 36
83 88 70 63 57 54 48 38 38 35 31 27 26 28 31 33 36 37 40 41 38 37 36 31 30 29 28 29 31 32 34 35
77 84 65 65 58 52 45 38 37 34 28 26 27 29 29 31 32 34 37 37 35 32 32 30 29 27 26 28 29 31 31 32
73 65 66 64 57 49 41 38 34 30 26 25 27 30 29 31 30 33 34 32 32 31 30 29 27 28 29 28 28 28 25 24
57 53 58 63 54 47 40 35 30 25 23 24 28 30 29 28 30 31 29 28 31 33 31 28 29 30 29 24 26 24 21 23
41 50 58 64 54 45 39 29 25 22 22 25 25 26 27 27 34 26 22 24 28 28 26 25 26 28 26 28 27 20 19 19
36 50 60 59 48 37 29 22 20 18 21 22 23 22 20 26 18 12 18 19 20 21 23 22 26 29 26 33 26 21 18 17
40 55 61 51 38 30 24 21 16 16 19 16 13 13 15 12 6 7 11 13 17 18 18 23 28 25 27 34 27 19 13 12
45 59 53 42 32 27 24 17 12 14 7 6 10 10 10 8 9 9 8 9 12 16 19 24 24 21 22 33 33 24 16 17
Wind_Direction_500mb
180 189 192 195 201 206 213 218 224 245 264 297 305 305 281 261 260 263 264 256 269 268 263 262 255 256 266 267 269 265 250 248
188 196 198 204 209 214 221 222 227 244 262 283 299 305 281 264 266 265 264 259 262 259 258 258 252 261 256 260 260 263 262 245
206 205 202 207 213 218 226 227 233 248 264 280 295 296 277 260 262 262 263 264 260 260 260 258 257 255 249 251 250 250 254 255
212 213 210 213 215 221 229 233 238 251 268 283 292 287 274 262 261 266 269 264 263 258 257 254 254 254 254 251 250 247 250 251
221 218 220 222 219 222 226 231 239 254 272 283 289 283 274 263 258 260 266 261 266 262 257 254 249 251 253 252 249 246 243 246
226 224 221 224 224 224 227 232 239 254 270 284 287 279 272 261 262 262 266 271 267 264 260 256 250 248 250 250 248 244 240 240
232 230 225 227 228 225 225 230 239 252 267 285 283 274 264 260 261 261 268 269 269 265 259 252 251 249 250 250 247 246 238 233
240 233 228 229 229 227 227 230 240 251 273 281 275 267 259 258 256 253 261 262 259 263 259 250 249 251 248 252 241 233 230 229
241 238 232 230 231 229 229 233 239 256 275 277 274 263 253 252 254 251 259 255 252 259 262 257 256 255 253 247 248 235 226 223
246 241 233 231 231 230 230 233 241 262 273 274 274 268 260 258 258 255 256 249 249 253 263 261 258 264 255 246 243 236 228 223
252 246 233 229 231 230 231 232 247 263 271 275 273 272 265 263 266 261 256 250 248 251 259 262 259 264 252 243 235 233 225 222
258 247 236 229 230 229 227 231 249 264 268 272 270 271 267 268 269 265 261 257 252 253 249 256 257 261 250 239 231 225 222 220
262 247 236 228 226 223 219 233 251 261 267 270 271 271 267 273 270 268 262 255 252 247 239 249 252 252 242 235 227 219 213 220
266 246 233 224 220 214 215 234 251 258 266 269 271 271 269 277 275 274 263 247 239 237 240 248 254 247 236 229 219 206 208 218
259 241 229 217 205 200 217 235 247 255 262 274 275 272 275 275 283 278 262 239 232 237 242 249 255 243 224 217 197 197 202 201
241 223 214 200 192 201 219 230 239 251 268 280 273 274 277 276 288 278 248 228 228 235 239 246 243 209 199 187 183 187 185 191
226 212 193 185 191 203 214 220 230 252 273 281 278 281 278 288 287 253 215 216 224 230 233 233 193 186 191 184 184 162 171 187
203 188 177 179 189 201 203 211 231 270 289 286 278 279 286 285 268 200 196 219 233 227 219 200 188 193 189 184 180 170 162 186
180 173 172 178 188 193 199 209 246 282 282 277 287 277 278 273 231 221 209 228 219 198 193 187 187 186 187 183 178 187 189 184
Wind_Speed_850mb
25 25 30 30 30 30 30 29 23 17 16 18 22 22 22 24 30 34 34 37 34 34 29 26 27 26 27 27 24 23 24 22
22 24 31 33 33 33 35 33 28 23 19 20 24 25 21 26 34 36 39 39 39 36 36 33 34 33 33 33 29 26 25 24
22 20 31 34 35 36 38 36 31 27 24 25 28 26 21 28 30 31 33 38 40 38 37 39 35 35 37 38 36 33 30 28
32 27 29 34 36 39 39 37 33 30 27 29 32 28 27 26 27 27 31 34 38 44 45 44 42 42 43 42 39 37 37 32
40 38 36 34 40 44 43 39 36 30 29 34 37 35 32 30 30 30 32 32 36 41 44 44 44 44 43 45 44 39 37 36
52 50 45 44 47 49 46 40 35 30 34 39 40 40 38 38 36 35 32 35 32 36 38 38 42 47 46 47 46 42 41 35
62 61 54 51 52 54 51 42 37 33 36 40 40 40 39 40 39 36 34 30 30 31 32 30 30 31 33 29 34 43 40 33
65 67 61 54 55 56 53 44 39 35 35 38 38 34 34 39 42 41 37 34 28 25 27 29 32 33 33 29 30 32 33 37
80 71 64 56 58 57 51 46 39 34 35 36 32 27 31 36 42 42 38 32 31 26 27 28 29 32 34 42 32 30 34 35
87 79 68 61 60 57 52 46 38 32 36 33 28 28 30 33 38 39 39 35 34 31 27 28 29 27 31 35 39 32 31 35
84 89 67 65 58 56 50 43 34 36 34 29 27 27 32 35 36 38 40 39 38 34 32 29 30 29 29 30 33 36 34 36
83 88 70 63 57 54 48 38 38 35 31 27 26 28 31 33 36 37 40 41 38 37 36 31 30 29 28 29 31 32 34 35
77 84 65 65 58 52 45 38 37 34 28 26 27 29 29 31 32 34 37 37 35 32 32 30 29 27 26 28 29 31 31 32
73 65 66 64 57 49 41 38 34 30 26 25 27 30 29 31 30 33 34 32 32 31 30 29 27 28 29 28 28 28 25 24
57 53 58 63 54 47 40 35 30 25 23 24 28 30 29 28 30 31 29 28 31 33 31 28 29 30 29 24 26 24 21 23
41 50 58 64 54 45 39 29 25 22 22 25 25 26 27 27 34 26 22 24 28 28 26 25 26 28 26 28 27 20 19 19
36 50 60 59 48 37 29 22 20 18 21 22 23 22 20 26 18 12 18 19 20 21 23 22 26 29 26 33 26 21 18 17
40 55 61 51 38 30 24 21 16 16 19 16 13 13 15 12 6 7 11 13 17 18 18 23 28 25 27 34 27 19 13 12
45 59 53 42 32 27 24 17 12 14 7 6 10 10 10 8 9 9 8 9 12 16 19 24 24 21 22 33 33 24 16 17
Wind_Direction_850mb
180 189 192 195 201 206 213 218 224 245 264 297 305 305 281 261 260 263 264 256 269 268 263 262 255 256 266 267 269 265 250 248
188 196 198 204 209 214 221 222 227 244 262 283 299 305 281 264 266 265 264 259 262 259 258 258 252 261 256 260 260 263 262 245
206 205 202 207 213 218 226 227 233 248 264 280 295 296 277 260 262 262 263 264 260 260 260 258 257 255 249 251 250 250 254 255
212 213 210 213 215 221 229 233 238 251 268 283 292 287 274 262 261 266 269 264 263 258 257 254 254 254 254 251 250 247 250 251
221 218 220 222 219 222 226 231 239 254 272 283 289 283 274 263 258 260 266 261 266 262 257 254 249 251 253 252 249 246 243 246
226 224 221 224 224 224 227 232 239 254 270 284 287 279 272 261 262 262 266 271 267 264 260 256 250 248 250 250 248 244 240 240
232 230 225 227 228 225 225 230 239 252 267 285 283 274 264 260 261 261 268 269 269 265 259 252 251 249 250 250 247 246 238 233
240 233 228 229 229 227 227 230 240 251 273 281 275 267 259 258 256 253 261 262 259 263 259 250 249 251 248 252 241 233 230 229
241 238 232 230 231 229 229 233 239 256 275 277 274 263 253 252 254 251 259 255 252 259 262 257 256 255 253 247 248 235 226 223
246 241 233 231 231 230 230 233 241 262 273 274 274 268 260 258 258 255 256 249 249 253 263 261 258 264 255 246 243 236 228 223
252 246 233 229 231 230 231 232 247 263 271 275 273 272 265 263 266 261 256 250 248 251 259 262 259 264 252 243 235 233 225 222
258 247 236 229 230 229 227 231 249 264 268 272 270 271 267 268 269 265 261 257 252 253 249 256 257 261 250 239 231 225 222 220
262 247 236 228 226 223 219 233 251 261 267 270 271 271 267 273 270 268 262 255 252 247 239 249 252 252 242 235 227 219 213 220
266 246 233 224 220 214 215 234 251 258 266 269 271 271 269 277 275 274 263 247 239 237 240 248 254 247 236 229 219 206 208 218
259 241 229 217 205 200 217 235 247 255 262 274 275 272 275 275 283 278 262 239 232 237 242 249 255 243 224 217 197 197 202 201
241 223 214 200 192 201 219 230 239 251 268 280 273 274 277 276 288 278 248 228 228 235 239 246 243 209 199 187 183 187 185 191
226 212 193 185 191 203 214 220 230 252 273 281 278 281 278 288 287 253 215 216 224 230 233 233 193 186 191 184 184 162 171 187
203 188 177 179 189 201 203 211 231 270 289 286 278 279 286 285 268 200 196 219 233 227 219 200 188 193 189 184 180 170 162 186
180 173 172 178 188 193 199 209 246 282 282 277 287 277 278 273 231 221 209 228 219 198 193 187 187 186 187 183 178 187 189 184